When you browse on this site, cookies collect data to enhance your experience and personalize the content and advertising you see.
Visit our Privacy Policy to learn more. By continuing to use the site, you agree to this use of cookies and data.
  • în România
  • Lista ţărilor
  • Pe 7 zile
  • Temperatura apei
  • Hartă satelitară
  • Meteo pe hartă
  • Widget-uri
  • user-avatar
    Intrare

    Meteo pe oră la Oklahoma-Siti

    Astăzi, 16 Februarie, Sâmbătă

    Timp Temperatura Precipitaţii Vânt Presiune Umiditate
    00:00 -8°C° 0 mm 4 m/s 728 mmHg 72%
    01:00 -8°C° 0 mm 4 m/s 728 mmHg 71%
    02:00 -8°C° 0 mm 4 m/s 728 mmHg 71%
    03:00 -7°C° 0 mm 4 m/s 728 mmHg 72%
    04:00 -7°C° 0 mm 4 m/s 728 mmHg 73%
    05:00 -7°C° 0 mm 4 m/s 728 mmHg 73%
    06:00 -5°C° 0 mm 4 m/s 728 mmHg 72%
    07:00 -5°C° 0 mm 3 m/s 727 mmHg 72%
    08:00 -5°C° 0 mm 3 m/s 727 mmHg 71%
    09:00 -2°C° 0 mm 3 m/s 726 mmHg 68%
    10:00 -1°C° 0 mm 3 m/s 726 mmHg 65%
    11:00 +1°C° 0 mm 3 m/s 725 mmHg 63%
    12:00 +1°C° 0 mm 4 m/s 724 mmHg 60%
    13:00 +4°C° 0 mm 4 m/s 723 mmHg 58%
    14:00 +6°C° 0 mm 4 m/s 723 mmHg 56%
    15:00 +5°C° 0 mm 4 m/s 722 mmHg 59%
    16:00 +5°C° 0 mm 4 m/s 721 mmHg 63%
    17:00 +4°C° 0 mm 3 m/s 720 mmHg 67%
    18:00 +3°C° 0 mm 3 m/s 720 mmHg 73%
    19:00 +3°C° 0 mm 3 m/s 719 mmHg 79%
    20:00 +2°C° 0 mm 3 m/s 719 mmHg 85%
    21:00 +1°C° 0 mm 4 m/s 719 mmHg 87%
    22:00 +1°C° 0 mm 5 m/s 719 mmHg 88%
    23:00 +2°C° 0 mm 6 m/s 719 mmHg 90%

    Mâine, 17 Februarie, Duminică

    Timp Temperatura Precipitaţii Vânt Presiune Umiditate
    00:00 +1°C° 0 mm 5 m/s 719 mmHg 90%
    01:00 +1°C° 0 mm 4 m/s 719 mmHg 91%
    02:00 +1°C° 0 mm 4 m/s 720 mmHg 91%
    03:00 0°C° 0 mm 5 m/s 721 mmHg 90%
    04:00 -1°C° 0 mm 6 m/s 722 mmHg 89%
    05:00 -2°C° 0 mm 8 m/s 723 mmHg 88%
    06:00 -2°C° 0 mm 7 m/s 724 mmHg 83%
    07:00 -1°C° 0 mm 7 m/s 725 mmHg 77%
    08:00 -1°C° 0 mm 6 m/s 727 mmHg 72%
    09:00 +1°C° 0 mm 6 m/s 727 mmHg 64%
    10:00 +3°C° 0 mm 5 m/s 728 mmHg 57%
    11:00 +6°C° 0 mm 5 m/s 728 mmHg 49%
    12:00 +7°C° 0 mm 5 m/s 728 mmHg 45%
    13:00 +8°C° 0 mm 5 m/s 728 mmHg 42%
    14:00 +10°C° 0 mm 4 m/s 728 mmHg 38%
    15:00 +8°C° 0 mm 4 m/s 728 mmHg 42%
    16:00 +8°C° 0 mm 3 m/s 729 mmHg 45%
    17:00 +7°C° 0 mm 3 m/s 729 mmHg 48%
    18:00 +5°C° 0 mm 4 m/s 730 mmHg 50%
    19:00 +4°C° 0 mm 4 m/s 731 mmHg 52%
    20:00 +1°C° 0 mm 5 m/s 732 mmHg 53%
    21:00 0°C° 0 mm 5 m/s 732 mmHg 57%
    22:00 0°C° 0 mm 5 m/s 732 mmHg 61%
    23:00 -2°C° 0 mm 6 m/s 732 mmHg 65%

    Poimâine, 18 Februarie, Luni

    Timp Temperatura Precipitaţii Vânt Presiune Umiditate
    00:00 -2°C° 0 mm 5 m/s 733 mmHg 68%
    01:00 -4°C° 0 mm 5 m/s 733 mmHg 72%
    02:00 -3°C° 0 mm 4 m/s 733 mmHg 75%
    03:00 -4°C° 0 mm 4 m/s 733 mmHg 75%
    04:00 -5°C° 0 mm 5 m/s 734 mmHg 74%
    05:00 -5°C° 0 mm 5 m/s 734 mmHg 74%
    06:00 -5°C° 0 mm 5 m/s 735 mmHg 70%
    07:00 -4°C° 0 mm 6 m/s 736 mmHg 66%
    08:00 -4°C° 0 mm 6 m/s 736 mmHg 62%
    09:00 -3°C° 0 mm 6 m/s 737 mmHg 57%
    10:00 -2°C° 0 mm 6 m/s 737 mmHg 52%
    11:00 -1°C° 0 mm 6 m/s 737 mmHg 47%
    12:00 +1°C° 0 mm 6 m/s 736 mmHg 45%
    13:00 +2°C° 0 mm 6 m/s 735 mmHg 44%
    14:00 +2°C° 0 mm 7 m/s 735 mmHg 42%
    15:00 +1°C° 0 mm 6 m/s 735 mmHg 43%
    16:00 +1°C° 0 mm 6 m/s 735 mmHg 45%
    17:00 -1°C° 0 mm 6 m/s 735 mmHg 46%
    18:00 -2°C° 0 mm 6 m/s 735 mmHg 49%
    19:00 -3°C° 0 mm 6 m/s 735 mmHg 52%
    20:00 -4°C° 0 mm 6 m/s 736 mmHg 54%
    21:00 -4°C° 0 mm 6 m/s 736 mmHg 58%
    22:00 -4°C° 0 mm 7 m/s 735 mmHg 62%
    23:00 -6°C° 0 mm 7 m/s 735 mmHg 66%

    19 Februarie, Marţi

    Timp Temperatura Precipitaţii Vânt Presiune Umiditate
    00:00 -5°C° 0 mm 6 m/s 735 mmHg 69%
    01:00 -5°C° 0 mm 6 m/s 734 mmHg 73%
    02:00 -5°C° 0 mm 5 m/s 734 mmHg 76%
    03:00 -5°C° 0 mm 6 m/s 733 mmHg 77%
    04:00 -5°C° 0 mm 6 m/s 733 mmHg 79%
    05:00 -4°C° 0 mm 6 m/s 733 mmHg 80%
    06:00 -4°C° 1.6 mm 6 m/s 733 mmHg 85%
    07:00 -5°C° 1.6 mm 5 m/s 733 mmHg 90%
    08:00 -5°C° 1.6 mm 5 m/s 733 mmHg 95%
    09:00 -4°C° 0.8 mm 5 m/s 732 mmHg 95%
    10:00 -4°C° 0.8 mm 6 m/s 732 mmHg 94%
    11:00 -4°C° 0.8 mm 6 m/s 732 mmHg 93%
    12:00 -4°C° 0.2 mm 6 m/s 731 mmHg 94%
    13:00 -4°C° 0.2 mm 5 m/s 730 mmHg 94%
    14:00 -4°C° 0.2 mm 5 m/s 729 mmHg 94%
    15:00 -4°C° 0.2 mm 5 m/s 729 mmHg 94%
    16:00 -4°C° 0.2 mm 5 m/s 729 mmHg 95%
    17:00 -3°C° 0.2 mm 4 m/s 729 mmHg 95%
    18:00 -3°C° 0.1 mm 4 m/s 729 mmHg 95%
    19:00 -2°C° 0.1 mm 3 m/s 729 mmHg 95%
    20:00 -2°C° 0.1 mm 3 m/s 729 mmHg 96%
    21:00 -2°C° 0 mm 3 m/s 729 mmHg 96%
    22:00 -2°C° 0 mm 3 m/s 729 mmHg 96%
    23:00 -2°C° 0 mm 3 m/s 729 mmHg 96%

    20 Februarie, Miercuri

    Timp Temperatura Precipitaţii Vânt Presiune Umiditate
    00:00 -2°C° 0 mm 3 m/s 728 mmHg 96%
    01:00 -2°C° 0 mm 3 m/s 728 mmHg 96%
    02:00 -3°C° 0 mm 4 m/s 728 mmHg 96%
    03:00 -4°C° 0 mm 3 m/s 728 mmHg 96%
    04:00 -4°C° 0 mm 3 m/s 728 mmHg 96%
    05:00 -3°C° 0 mm 2 m/s 729 mmHg 96%
    06:00 -4°C° 0 mm 3 m/s 729 mmHg 95%
    07:00 -4°C° 0 mm 3 m/s 729 mmHg 95%
    08:00 -4°C° 0 mm 3 m/s 729 mmHg 94%
    09:00 -4°C° 0 mm 3 m/s 729 mmHg 95%
    10:00 -2°C° 0 mm 3 m/s 729 mmHg 96%
    11:00 -2°C° 0 mm 3 m/s 729 mmHg 97%
    12:00 -1°C° 0 mm 3 m/s 729 mmHg 95%
    13:00 -1°C° 0 mm 2 m/s 728 mmHg 93%
    14:00 +1°C° 0 mm 2 m/s 728 mmHg 91%
    15:00 -1°C° 0 mm 2 m/s 728 mmHg 90%
    16:00 -1°C° 0 mm 2 m/s 728 mmHg 90%
    17:00 +1°C° 0 mm 1 m/s 728 mmHg 90%
    18:00 -1°C° 0 mm 2 m/s 729 mmHg 90%
    19:00 -2°C° 0 mm 2 m/s 729 mmHg 91%
    20:00 -3°C° 0 mm 2 m/s 730 mmHg 92%
    21:00 -3°C° 0 mm 2 m/s 730 mmHg 92%
    22:00 -3°C° 0 mm 2 m/s 730 mmHg 92%
    23:00 -3°C° 0 mm 2 m/s 731 mmHg 93%

    21 Februarie, Joi

    Timp Temperatura Precipitaţii Vânt Presiune Umiditate
    00:00 -3°C° 0 mm 2 m/s 731 mmHg 93%
    01:00 -3°C° 0 mm 2 m/s 731 mmHg 93%
    02:00 -4°C° 0 mm 3 m/s 731 mmHg 93%
    03:00 -4°C° 0 mm 3 m/s 731 mmHg 92%
    04:00 -4°C° 0 mm 3 m/s 731 mmHg 92%
    05:00 -2°C° 0 mm 3 m/s 731 mmHg 92%
    06:00 -3°C° 0 mm 4 m/s 731 mmHg 91%
    07:00 -4°C° 0 mm 5 m/s 731 mmHg 90%
    08:00 -4°C° 0 mm 5 m/s 731 mmHg 89%
    09:00 -2°C° 0.1 mm 5 m/s 731 mmHg 90%
    10:00 -2°C° 0.1 mm 4 m/s 731 mmHg 90%
    11:00 -1°C° 0.1 mm 4 m/s 732 mmHg 90%
    12:00 -1°C° 0 mm 4 m/s 731 mmHg 90%
    13:00 -1°C° 0 mm 4 m/s 731 mmHg 91%
    14:00 -1°C° 0 mm 4 m/s 730 mmHg 91%
    15:00 -1°C° 0.4 mm 4 m/s 730 mmHg 92%
    16:00 -1°C° 0.4 mm 4 m/s 730 mmHg 93%
    17:00 0°C° 0.4 mm 3 m/s 731 mmHg 95%
    18:00 0°C° 0.1 mm 3 m/s 731 mmHg 95%
    19:00 0°C° 0.1 mm 3 m/s 731 mmHg 96%
    20:00 0°C° 0.1 mm 3 m/s 731 mmHg 96%
    21:00 0°C° 0 mm 3 m/s 731 mmHg 97%
    22:00 +1°C° 0 mm 2 m/s 732 mmHg 97%
    23:00 +1°C° 0 mm 2 m/s 732 mmHg 98%
    Arată mai mult